Location: Unspecified
(48.5670°N, 0.0000°E)
Time: 05:28:56
(UTC+00:00)

Transit 4A - Pass Details

Date: 27 August 2019
Orbit: 865 x 980 km, 66.8° (Epoch: 14 September)

Event Time Altitude Azimuth Distance (km) Brightness Sun altitude
Rises 03:28:23 0° 313° (NW) 3,619 10.9 -15.7°
Reaches altitude 10° 03:31:52 10° 295° (WNW) 2,646 10.0 -15.3°
Enters shadow 03:34:52 17° 266° (W) 2,186 9.3 -14.9°
